Location: Warszawa
(52.2500°N, 21.0000°E)
Time: 21:15:47
(UTC+02:00)

AO-91 - Pass Details

Date: 29 April 2024
Orbit: 441 x 737 km, 97.6° (Epoch: 20 May)

Event Time Altitude Azimuth Distance (km) Brightness Sun altitude
Rises 21:35:59 0° 25° (NNE) 2,458 ? -12.8°
Reaches altitude 10° 21:38:18 10° 41° (NE) 1,598 ? -13.0°
Maximum altitude 21:41:03 23° 95° (E) 1,050 ? -13.3°
Enters shadow 21:41:41 21° 112° (ESE) 1,093 ? -13.4°
